User: anonymous   Login
Location: Newark
(50.8311°N, 16.5142°E)
Time: 07:15:39
(UTC+00:00)
Language:

DUCHIFAT 1 - Orbit

View from above orbital plane
View from above orbital plane
View from above satellite
View from above satellite

Ground track
Ground track

The orbit data is extracted from the following two-line orbital elements,

1 40021U 14033M   19350.04164981  .00000244  00000-0  30667-4 0  9995
2 40021  97.9324 275.2837 0012914 169.4183 190.7309 14.90762568298417
Epoch (UTC): 16 December 2019 00:59:58
Eccentricity: 0.0012914
inclination: 97.9324°
perigee height: 586 km
apogee height: 604 km
right ascension of ascending node: 275.2837°
argument of perigee: 169.4183°
revolutions per day: 14.90762568
mean anomaly at epoch: 190.7309°
orbit number at epoch: 29841

The dashed part of the orbit path shows where the satellite is in the earth's shadow,  

DLR